Theta_e
318 318 318 318 318 318 318 317 317 317 318 319 319 318 316 316 317 320 323 325 331 333 335 336 338 341 342 343 345 347 346 342 344 347 349 346 350 348 347 347 345 347 347 344 348
320 320 319 319 319 319 318 318 317 317 317 318 319 318 317 316 317 320 321 324 329 333 329 332 335 338 341 340 342 345 344 343 344 346 347 347 349 348 348 347 349 350 350 349 346
322 322 322 321 320 319 319 319 318 317 317 317 319 319 317 316 319 321 321 324 327 329 330 332 334 339 341 340 339 341 343 341 342 346 345 347 348 347 349 348 348 350 351 347 345
321 322 322 322 322 321 319 319 319 318 317 317 318 320 318 316 323 322 323 324 326 328 329 332 337 340 341 341 338 341 340 344 347 346 346 346 345 346 347 346 346 350 350 348 344
319 319 321 322 322 322 322 319 319 318 317 317 318 320 318 320 319 323 324 326 325 327 330 335 340 340 341 340 339 340 343 345 346 345 345 344 345 348 348 346 348 349 349 347 343
318 318 319 321 321 321 322 320 320 319 317 317 318 319 320 321 317 321 321 322 327 329 333 335 339 338 340 339 339 337 343 345 345 345 344 345 347 348 349 347 349 349 348 346 341
318 317 318 318 319 320 321 321 320 319 317 317 319 319 320 321 317 316 317 321 323 329 333 335 335 337 338 340 337 337 343 345 345 344 346 345 349 349 348 349 349 349 347 345 342
319 318 317 317 317 318 322 320 320 318 319 322 320 320 321 317 317 317 319 321 323 327 329 330 331 334 338 338 339 340 341 341 343 345 345 345 347 350 348 349 348 348 346 345 346
318 318 318 316 316 319 322 320 321 320 324 324 323 321 323 318 320 321 321 323 324 325 325 328 330 336 337 341 342 341 341 341 341 343 345 346 346 347 347 349 348 347 347 346 346
317 318 318 317 316 321 321 323 324 324 324 323 322 324 323 323 323 322 322 323 324 324 326 329 333 338 340 341 343 343 340 340 341 340 344 345 345 348 348 347 348 347 347 346 346
314 315 317 317 316 321 321 324 326 326 325 327 326 324 322 324 322 322 322 322 323 325 331 331 336 338 339 338 340 341 341 341 339 338 341 343 343 344 348 348 347 346 346 346 347
313 314 315 316 316 321 324 326 324 323 327 326 325 325 325 325 325 323 321 324 325 327 327 330 334 335 336 337 339 340 342 341 339 338 336 343 343 343 344 348 348 346 346 345 345
313 314 314 315 319 320 324 323 323 323 329 327 325 325 325 324 325 323 322 323 325 327 326 330 331 332 333 337 338 338 341 341 339 337 338 340 343 343 346 346 347 347 346 345 345
312 314 314 315 320 319 324 323 322 324 332 327 326 325 324 325 325 324 322 322 322 323 325 326 328 328 331 333 336 337 339 338 336 337 340 338 343 343 344 347 349 347 346 346 346
312 313 315 314 315 320 323 322 323 323 330 327 325 324 324 325 324 324 320 321 322 322 323 324 324 327 329 331 333 336 336 336 336 337 339 339 342 342 343 341 342 350 346 346 346
311 313 315 315 315 317 320 322 323 329 331 326 326 325 325 324 323 322 321 321 322 322 322 323 323 325 328 329 330 333 332 334 335 338 339 338 342 342 342 340 340 344 346 346 345
312 313 315 315 321 321 321 324 328 327 328 327 328 326 325 325 324 324 324 323 323 323 324 323 323 324 325 327 330 331 331 333 334 338 339 338 342 341 340 340 339 340 343 346 346
313 314 315 314 314 319 323 328 326 327 331 326 327 328 326 325 325 324 325 324 323 323 324 325 324 323 325 326 328 328 329 330 332 335 339 340 340 340 339 337 338 339 342 346 347
314 321 326 320 314 319 326 327 324 330 326 326 328 329 327 326 325 325 325 325 325 323 324 325 325 324 324 325 327 328 330 330 330 335 338 338 338 339 337 337 338 339 339 344 346
319 325 323 318 315 321 327 321 326 327 325 326 331 330 329 326 325 325 326 326 325 325 324 326 326 325 325 324 326 327 330 330 332 336 338 337 337 338 337 336 337 338 339 340 345
324 328 319 316 320 324 327 324 323 323 324 328 329 330 330 327 328 328 328 329 328 329 325 326 325 326 325 325 326 328 331 332 334 335 336 339 337 336 336 336 337 337 340 342 342
325 329 322 322 327 326 326 324 325 326 326 328 329 331 331 329 329 329 331 332 332 329 326 326 326 326 326 327 327 328 329 330 334 336 335 334 336 335 334 335 335 337 340 345 344
328 328 324 325 329 327 328 328 328 329 330 329 331 330 330 331 331 329 330 333 330 326 327 326 327 327 327 326 326 326 328 330 331 332 333 335 335 334 335 334 334 341 340 345 348
327 330 326 327 328 330 331 331 330 330 331 331 332 333 333 332 331 330 330 334 333 334 323 324 327 327 328 329 328 328 328 329 330 331 332 333 334 334 334 335 335 338 341 343 351
327 331 330 329 331 331 331 332 332 332 331 333 334 336 336 335 330 330 330 331 332 330 328 327 332 332 331 330 327 327 329 329 331 331 332 333 335 334 335 337 338 340 341 345 351
326 331 330 331 330 332 327 332 332 333 334 334 336 336 335 336 338 332 333 333 333 336 335 333 335 336 335 332 329 326 327 328 330 330 332 333 331 332 334 336 339 342 344 347 352
321 324 328 328 331 331 331 331 332 332 333 334 334 337 337 337 334 336 336 335 336 337 334 334 332 334 334 334 334 330 328 328 329 331 330 330 331 331 332 333 341 343 345 347 352
Wind_Speed
12 12 12 12 13 13 13 13 13 13 12 12 12 11 10 9 8 8 5 8 6 7 1 3 4 3 3 2 3 3 4 6 8 7 5 6 5 3 4 11 4 3 6 17 24
12 13 13 13 14 14 14 14 14 13 13 12 12 11 10 8 6 9 11 10 10 8 3 5 3 3 5 1 2 5 4 9 6 3 3 6 3 8 5 9 6 7 12 22 25
14 14 14 14 14 15 15 14 15 14 13 12 12 11 9 7 4 7 10 12 13 11 7 6 6 4 5 1 3 3 6 10 7 1 4 7 5 3 4 6 5 12 21 24 25
15 15 16 16 16 16 15 15 15 15 14 12 11 10 8 3 5 6 10 9 11 13 9 5 5 6 7 5 3 6 8 8 3 4 5 7 8 5 1 5 3 13 22 24 24
16 16 16 16 17 17 16 15 15 14 13 12 11 9 6 4 6 8 8 7 11 14 13 9 7 5 7 6 7 5 9 6 4 6 7 8 6 5 7 8 12 17 21 20 21
16 16 16 16 17 17 16 15 14 14 13 11 10 8 4 8 8 11 8 8 9 13 12 11 6 4 5 5 6 9 5 3 2 5 7 5 6 7 7 12 15 19 20 18 20
16 16 16 16 16 16 15 15 14 13 12 9 8 7 7 9 6 10 11 6 8 10 11 10 6 7 1 4 7 4 4 5 2 3 4 4 7 5 13 15 17 18 19 18 19
15 16 16 16 16 15 14 14 13 11 8 7 6 5 6 5 6 8 9 8 12 9 7 8 5 5 6 3 5 7 6 6 5 3 3 6 6 11 16 18 18 18 20 19 20
16 16 16 15 16 14 12 12 11 7 5 5 4 3 2 1 3 5 11 9 11 9 8 9 7 9 7 11 9 6 4 3 5 2 2 5 6 8 16 18 18 20 21 21 21
15 15 15 15 15 13 9 9 6 6 5 4 6 5 5 5 3 5 11 12 11 12 10 11 11 11 12 10 11 4 7 3 4 4 6 9 9 11 14 18 20 20 21 22 22
15 15 14 14 13 10 5 4 3 2 4 6 1 3 3 2 3 7 12 12 12 14 15 14 13 17 17 17 9 5 8 6 5 5 6 4 8 7 14 17 18 20 22 23 24
15 15 13 13 11 4 2 1 4 3 7 8 11 14 12 7 4 9 13 14 12 14 7 8 18 19 15 10 11 14 12 11 4 3 6 7 11 5 7 15 19 22 23 24 22
15 14 12 11 4 3 4 2 6 6 6 3 4 3 4 9 6 12 15 13 12 12 13 17 8 11 10 15 17 16 15 12 5 9 11 7 15 7 4 8 14 20 23 23 24
14 14 12 7 1 3 2 4 10 2 5 6 5 4 6 7 7 6 12 11 7 12 11 11 10 8 16 19 16 19 14 9 8 7 9 0 11 7 5 7 12 18 24 25 25
13 13 10 6 4 1 6 4 6 1 5 4 6 4 8 6 12 7 9 9 8 9 9 11 13 15 15 18 14 16 6 10 9 11 12 15 8 10 4 7 5 13 19 26 25
12 12 9 7 4 6 5 4 1 6 3 5 4 7 11 7 6 10 11 5 3 5 8 8 4 9 17 9 12 15 9 12 11 12 13 17 8 11 5 2 7 3 9 21 26
12 12 10 6 3 5 3 2 6 4 4 6 5 7 11 10 8 12 13 14 9 9 10 11 14 8 7 15 10 10 16 12 13 13 12 6 7 12 10 10 5 6 2 15 24
12 10 7 5 7 7 4 6 4 3 3 3 2 6 9 12 7 6 13 12 7 7 2 6 10 15 14 16 14 13 17 13 14 13 14 6 9 12 3 10 6 8 4 9 20
10 3 3 2 9 10 7 6 2 2 2 1 6 10 9 9 4 10 10 10 10 14 5 5 4 3 6 13 14 13 13 17 18 8 9 6 5 8 14 8 9 9 5 9 14
4 3 5 4 12 8 7 1 1 2 5 2 3 5 9 9 10 9 8 3 6 10 14 2 5 2 10 9 14 16 10 13 11 15 15 13 9 9 8 11 10 9 5 7 11
3 3 3 11 12 7 6 2 1 1 2 2 1 5 3 10 6 7 8 7 3 4 14 9 7 7 8 13 15 11 13 11 11 13 13 12 9 5 5 10 10 11 4 4 9
1 3 5 11 7 3 5 2 0 3 3 3 3 3 1 4 8 5 9 4 2 6 7 13 6 7 9 8 5 10 19 18 10 15 12 13 12 11 8 13 10 12 2 1 3
2 3 3 2 4 6 4 4 3 5 3 2 3 1 0 3 5 5 5 5 2 5 6 9 8 7 10 10 9 10 13 14 15 13 12 9 10 9 7 13 13 9 5 3 5
2 4 5 4 2 3 4 4 5 4 5 4 3 4 3 6 4 6 8 5 2 1 2 7 8 9 9 8 6 18 15 14 16 12 13 14 12 12 13 11 10 7 7 8 7
2 2 3 5 7 5 4 1 5 6 4 4 5 2 4 5 7 6 5 7 6 4 2 6 10 4 8 8 8 12 14 19 15 16 15 12 4 9 11 10 10 7 8 7 7
3 3 3 2 3 8 5 7 5 4 4 7 2 2 2 2 5 1 3 4 2 7 6 4 7 5 12 5 7 12 15 15 15 14 9 12 11 12 10 14 10 8 1 10 12
2 1 3 5 5 7 8 6 6 2 5 1 3 4 6 6 10 11 11 10 6 7 4 7 10 9 14 3 8 10 15 16 16 12 13 12 9 11 13 13 11 7 2 11 17
Wind_Direction
343 341 339 338 336 333 331 328 326 325 327 325 327 320 310 293 271 258 258 227 204 217 274 316 328 294 215 289 256 293 271 16 28 15 62 143 139 120 108 136 120 88 137 149 157
336 335 334 332 330 329 328 326 323 321 321 320 324 321 314 300 278 252 235 215 205 204 236 273 294 268 246 286 260 282 340 2 350 43 65 152 160 137 143 142 139 112 124 147 153
329 328 328 327 325 324 322 321 320 318 316 316 320 321 315 314 290 198 212 214 213 215 213 267 291 285 271 310 15 10 358 346 17 86 134 132 133 128 129 193 168 154 149 154 159
321 320 321 321 322 321 318 317 317 315 313 311 314 318 314 313 215 176 190 202 199 199 198 235 264 255 290 360 16 307 9 1 36 140 130 143 129 140 128 12 142 156 161 160 167
322 319 316 318 319 318 315 313 312 310 307 305 307 312 318 250 241 184 162 166 179 184 191 208 222 254 281 334 328 329 356 32 96 121 124 136 138 107 108 91 128 146 159 166 168
322 320 317 315 314 314 312 308 306 306 304 299 295 297 304 247 221 196 188 153 174 181 197 205 222 241 271 312 328 338 348 72 99 118 136 147 158 177 140 130 136 152 163 169 171
323 323 321 318 315 313 309 302 304 304 301 292 284 289 268 245 225 204 203 194 193 191 198 203 205 228 236 253 338 319 242 151 112 168 130 169 177 193 153 154 150 161 170 172 175
320 322 324 322 318 312 307 299 305 302 298 287 275 296 261 253 227 218 202 196 192 198 190 201 205 237 249 272 246 280 245 242 80 211 139 235 95 139 165 167 166 167 175 181 182
319 321 325 324 318 314 309 306 306 294 296 276 275 246 248 236 155 187 184 190 185 192 194 191 195 240 197 242 233 218 279 346 122 188 299 247 352 136 176 183 177 178 180 186 190
322 321 325 323 320 318 315 314 305 289 276 274 245 250 223 159 208 199 182 165 173 174 173 199 212 222 224 233 244 175 245 170 26 52 242 281 277 159 190 195 190 186 188 192 197
322 322 325 322 325 323 321 336 298 219 240 262 63 306 132 14 145 177 176 169 176 195 209 205 223 221 229 227 285 256 268 275 101 40 305 290 305 294 183 202 202 201 195 197 201
322 323 326 322 330 335 30 27 63 322 299 254 250 252 255 268 224 181 171 189 200 210 207 196 229 236 237 253 226 237 250 246 272 224 302 294 294 353 198 206 212 207 204 203 201
326 327 329 328 341 13 140 133 346 333 257 173 208 224 194 187 204 169 184 196 211 213 215 236 228 229 226 222 236 239 247 253 295 314 270 276 265 186 162 220 220 218 217 209 204
327 329 333 344 63 339 197 307 343 304 253 124 155 132 162 177 191 167 190 197 202 225 214 237 225 225 225 236 225 242 217 258 253 267 276 198 295 222 154 215 210 218 218 214 208
326 325 330 325 289 195 219 290 321 256 199 111 106 140 166 214 128 166 179 194 188 182 212 213 218 219 229 227 221 246 228 254 260 265 263 263 251 278 189 272 210 214 217 216 209
324 319 325 315 283 227 223 290 274 229 117 120 125 158 174 180 148 146 174 196 112 169 223 259 215 245 239 226 243 245 218 236 250 258 261 256 244 275 247 320 322 141 218 212 209
321 313 309 281 192 180 197 215 229 271 162 130 115 166 192 161 147 172 182 186 192 195 201 197 216 204 233 228 205 218 226 237 233 234 245 246 244 257 313 294 314 341 237 208 202
323 313 299 242 209 189 180 227 245 84 75 121 187 182 193 180 184 151 178 196 212 254 187 217 188 204 205 234 206 218 234 231 231 239 245 145 253 259 331 316 279 298 246 199 201
330 345 12 202 184 173 214 218 34 114 30 358 161 184 152 181 240 202 207 205 201 214 249 193 213 148 230 212 236 196 233 247 266 244 281 269 217 256 257 295 272 279 251 203 197
6 115 348 165 162 165 235 311 161 344 337 258 211 256 175 153 183 209 176 149 214 219 242 134 256 175 162 213 227 257 267 210 231 254 240 251 240 275 283 305 308 342 316 215 188
115 176 101 128 146 202 227 138 171 210 292 296 141 174 144 163 171 180 165 131 200 175 227 234 250 135 185 199 200 199 233 239 273 224 257 252 250 261 316 298 326 322 338 322 195
68 194 159 147 206 236 210 181 50 230 205 252 265 286 241 186 180 169 161 57 63 182 196 214 263 237 226 141 269 273 213 231 223 229 240 277 287 303 287 289 291 302 347 330 227
27 88 158 181 222 197 154 203 258 216 209 224 246 274 120 202 194 195 145 108 109 194 190 175 236 226 213 192 203 236 235 254 253 254 277 271 274 290 284 287 277 277 286 217 190
293 177 175 231 277 262 190 181 200 197 249 245 277 257 241 210 208 168 171 150 165 282 293 231 266 269 300 351 329 204 226 227 251 239 245 248 269 298 299 278 290 269 261 239 179
317 74 338 187 195 211 238 206 205 184 219 222 185 277 261 231 192 198 211 180 180 147 186 249 267 263 280 294 271 266 251 221 245 252 273 291 291 301 305 306 332 334 311 207 165
318 304 212 247 206 221 164 200 214 162 234 164 216 301 206 213 346 97 313 234 267 175 220 230 280 274 281 236 265 249 240 236 225 240 248 271 290 280 311 301 320 343 54 171 161
312 301 281 139 196 217 205 209 197 255 171 305 337 283 197 38 327 295 272 281 293 290 261 269 280 269 275 275 289 253 237 233 238 219 239 253 273 316 302 308 337 338 255 175 159